Home > Weather > Appleton > Past weeks

Flag for U.S.A. Weather for the Past 2 Weeks in Appleton, Wisconsin, U.S.A.

Now
12 °F

Light snow. Passing clouds.


Feels Like: -2 °F
Forecast: 11 / 20 °F
Wind: 12 mph from Northwest

Location: Appleton / Outagamie

Current Time: Feb 9, 2016 at 6:03:15 AM

Latest Report: Feb 9, 2016 at 4:15 AM


Visibility: 10 mi

Pressure: 29.75 "Hg

Humidity: 73%

Dew point: 5 °F

Location of AppletonLocation

Historic Weather in Appleton — Graph

°F

Appleton Temperature Yesterday

Maximum temperature yesterday: 34 °F (at 12:15 AM)
Minimum temperature yesterday: 18 °F (at 10:45 PM)
Average temperature yesterday: 28 °F

High & Low Weather Summary for the Past Weeks

 TemperatureHumidityPressure
High39 °F (Feb 7, 10:45 AM)100% (Jan 25, 3:15 AM)30.32 "Hg (Jan 25, 3:15 AM)
Low7 °F (Jan 29, 5:45 AM)54% (Jan 28, 6:45 PM)29.43 "Hg (Feb 3, 5:45 AM)
Average27 °F81%29.82 "Hg
* Reported Jan 25 3:15 AM — Feb 9 3:55 AM, Appleton, Weather by CustomWeather, © 2016

Note: Actual official high and low records may vary slightly from our data, if they occured in-between our weather recording intervals... More about our weather records

Advertising

Appleton Weather History for the Previous 24 Hours

 ConditionsComfort  
Time TempWeatherWind HumidityBarometerVisibility
3:55 AM
Tue, Feb 9
12 °FPassing clouds.13 mph73%29.74 "Hg10 mi
3:35 AM12 °FLight snow. Mostly cloudy.12 mph73%29.74 "Hg10 mi
3:15 AM14 °FLight snow. Mostly cloudy.15 mph73%29.74 "Hg7 mi
2:55 AM14 °FLight snow. Mostly cloudy.14 mph73%29.74 "Hg7 mi
1:55 AM14 °FPassing clouds.13 mph79%29.74 "Hg10 mi
1:15 AM16 °FPassing clouds.12 mph73%29.73 "Hg10 mi
12:55 AM16 °FPassing clouds.10 mph73%29.73 "Hg10 mi
11:55 PM
Mon, Feb 8
18 °FPassing clouds.12 mph73%29.73 "Hg10 mi
11:15 PM18 °FLight snow. Overcast.13 mph73%29.74 "Hg10 mi
10:45 PM18 °FLight snow. Mostly cloudy.12 mph68%29.74 "Hg7 mi
10:15 PM19 °FLight snow. Mostly cloudy.16 mph68%29.73 "Hg10 mi
9:45 PM19 °FLight snow. Overcast.15 mph73%29.73 "Hg5 mi
8:45 PM19 °FMostly cloudy.12 mph79%29.72 "Hg7 mi
7:45 PM23 °FLight snow. Mostly cloudy.12 mph74%29.72 "Hg3 mi
6:45 PM25 °FLight snow. Mostly cloudy.7 mph80%29.71 "Hg5 mi
5:53 PM27 °FLight snow. Mostly cloudy.8 mph80%29.71 "Hg5 mi
4:45 PM27 °FLight snow. Mostly cloudy.12 mph74%29.69 "Hg1 mi
3:45 PM27 °FLight snow. Overcast.17 mph69%29.67 "Hg7 mi
2:45 PM28 °FLight snow. Overcast.15 mph69%29.65 "Hg7 mi
1:45 PM28 °FLight snow. Overcast.13 mph74%29.63 "Hg7 mi
12:45 PM28 °FLight snow. Overcast.12 mph74%29.62 "Hg7 mi
11:45 AM27 °FLight snow. Overcast.14 mph80%29.62 "Hg7 mi
10:45 AM27 °FOvercast.13 mph74%29.63 "Hg10 mi
9:45 AM27 °FOvercast.14 mph74%29.61 "Hg10 mi
8:45 AM27 °FOvercast.14 mph74%29.60 "Hg10 mi
7:45 AM27 °FOvercast.12 mph80%29.59 "Hg10 mi
6:45 AM28 °FMostly cloudy.12 mph74%29.57 "Hg10 mi
Weather by CustomWeather, © 2016

See weather overviewHow to use our weather pages